sat.trackr.live / text

‹ back to catalog

STARLINK-36933

NORAD 69196 · 2026-114Q

PAYLOAD ACTIVE UNKNOWN

§ Identity

Operator
Country
US
Launch date
2026-05-25
Launch site
AFETR
Launch vehicle
Mass (kg)
RCS (m²)

Purposes: comms

External: N2YO · Heavens-Above · Gunter

§ Orbital elements

Epoch: 2026-09-20T00:44:43.399968Z

Period
93.85 min
Inclination
53.1570°
Eccentricity
0.0001146
Mean motion
15.34410372 rev/d
Perigee alt
461.9 km
Apogee alt
463.5 km
Semi-major
6,840.8 km
B*
3.4391e-4
RAAN
115.9459°
Arg perigee
84.0369°
Mean anomaly
276.0764°
Rev number
1,937

§ Raw data

STARLINK-369331 69196U 26114Q   26263.03105787  .00011265  00000+0  34391-3 0  99922 69196  53.1570 115.9459 0001146  84.0369 276.0764 15.34410372 19372

JSON: /api/v1/satellites/69196 · /tle

For live sub-satellite position, see the globe view (requires WebGL).

§ Visibility from observer

Set your observer location to see the next 7 days of passes ≥ 10°. The values pass through the URL so the page stays shareable.

No JS? Fill the form by hand. The geolocation button needs JavaScript.